Location: Deurze
(52.9838°N, 6.6090°E)
Time: 17:57:04
(UTC+00:00)

Cosmos 2263 Rocket - Pass Details

Date: 11 March 2026
Orbit: 823 x 846 km, 71.0° (Epoch: 20 April)

Event Time Altitude Azimuth Distance (km) Brightness Sun altitude
Rises 23:11:31 0° 327° (NNW) 3,407 6.1 -40.0°
Reaches altitude 10° 23:14:00 10° 324° (NW) 2,465 5.2 -40.1°
Enters shadow 23:15:37 20° 320° (NW) 1,878 4.4 -40.1°
